• In Hungary
  • List of Countries
  • For 7 days
  • Water Temperature
  • Satellite Maps
  • Weather Map
  • News
  • Weather Widgets
  • user-avatar
    Login

    Hourly Weather Bilzen

    Today, 26 September, Wednesday

    Time Temperature Precipitation Wind Pressure Humidity
    00:00 +8°C° 0 mm 2 mps 771 mmHg 68%
    01:00 +8°C° 0 mm 2 mps 771 mmHg 68%
    02:00 +7°C° 0 mm 2 mps 770 mmHg 67%
    03:00 +7°C° 0 mm 2 mps 770 mmHg 66%
    04:00 +7°C° 0 mm 2 mps 770 mmHg 65%
    05:00 +7°C° 0 mm 2 mps 770 mmHg 64%
    06:00 +7°C° 0 mm 2 mps 770 mmHg 63%
    07:00 +9°C° 0 mm 2 mps 770 mmHg 57%
    08:00 +12°C° 0 mm 2 mps 770 mmHg 52%
    09:00 +15°C° 0 mm 2 mps 770 mmHg 46%
    10:00 +16°C° 0 mm 2 mps 770 mmHg 42%
    11:00 +18°C° 0 mm 2 mps 769 mmHg 39%
    12:00 +19°C° 0 mm 2 mps 769 mmHg 36%
    13:00 +19°C° 0 mm 2 mps 769 mmHg 37%
    14:00 +20°C° 0 mm 2 mps 769 mmHg 38%
    15:00 +20°C° 0 mm 2 mps 768 mmHg 39%
    16:00 +18°C° 0 mm 2 mps 768 mmHg 45%
    17:00 +16°C° 0 mm 1 mps 768 mmHg 51%
    18:00 +14°C° 0 mm 1 mps 768 mmHg 57%
    19:00 +13°C° 0 mm 1 mps 768 mmHg 58%
    20:00 +13°C° 0 mm 1 mps 769 mmHg 59%
    21:00 +12°C° 0 mm 1 mps 769 mmHg 60%
    22:00 +12°C° 0 mm 1 mps 769 mmHg 61%
    23:00 +12°C° 0 mm 1 mps 769 mmHg 63%

    Tomorrow, 27 September, Thursday

    Time Temperature Precipitation Wind Pressure Humidity
    00:00 +11°C° 0 mm 1 mps 768 mmHg 64%
    01:00 +11°C° 0 mm 1 mps 768 mmHg 64%
    02:00 +11°C° 0 mm 1 mps 768 mmHg 64%
    03:00 +10°C° 0 mm 1 mps 768 mmHg 65%
    04:00 +9°C° 0 mm 2 mps 767 mmHg 65%
    05:00 +9°C° 0 mm 2 mps 767 mmHg 64%
    06:00 +9°C° 0 mm 2 mps 767 mmHg 64%
    07:00 +12°C° 0 mm 2 mps 767 mmHg 59%
    08:00 +15°C° 0 mm 2 mps 767 mmHg 55%
    09:00 +17°C° 0 mm 2 mps 766 mmHg 50%
    10:00 +18°C° 0 mm 2 mps 766 mmHg 47%
    11:00 +20°C° 0 mm 3 mps 765 mmHg 45%
    12:00 +21°C° 0 mm 3 mps 765 mmHg 42%
    13:00 +21°C° 0 mm 3 mps 764 mmHg 44%
    14:00 +21°C° 0 mm 3 mps 764 mmHg 45%
    15:00 +22°C° 0 mm 3 mps 763 mmHg 47%
    16:00 +19°C° 0 mm 3 mps 763 mmHg 53%
    17:00 +17°C° 0 mm 2 mps 763 mmHg 60%
    18:00 +15°C° 0 mm 2 mps 762 mmHg 67%
    19:00 +15°C° 0 mm 2 mps 762 mmHg 69%
    20:00 +14°C° 0 mm 2 mps 762 mmHg 72%
    21:00 +13°C° 0 mm 2 mps 762 mmHg 74%
    22:00 +13°C° 0 mm 2 mps 762 mmHg 76%
    23:00 +13°C° 0 mm 1 mps 762 mmHg 79%

    Day after tomorrow, 28 September, Friday

    Time Temperature Precipitation Wind Pressure Humidity
    00:00 +12°C° 0 mm 1 mps 762 mmHg 81%
    01:00 +12°C° 0 mm 1 mps 762 mmHg 83%
    02:00 +11°C° 0 mm 1 mps 761 mmHg 85%
    03:00 +11°C° 0 mm 1 mps 761 mmHg 87%
    04:00 +11°C° 0 mm 1 mps 762 mmHg 88%
    05:00 +11°C° 0 mm 1 mps 762 mmHg 90%
    06:00 +10°C° 0 mm 2 mps 762 mmHg 92%
    07:00 +12°C° 0 mm 2 mps 762 mmHg 88%
    08:00 +12°C° 0 mm 3 mps 763 mmHg 84%
    09:00 +13°C° 0 mm 4 mps 763 mmHg 80%
    10:00 +14°C° 0 mm 4 mps 763 mmHg 77%
    11:00 +14°C° 0 mm 4 mps 763 mmHg 74%
    12:00 +14°C° 0 mm 4 mps 763 mmHg 71%
    13:00 +15°C° 0 mm 4 mps 763 mmHg 66%
    14:00 +15°C° 0 mm 4 mps 763 mmHg 61%
    15:00 +16°C° 0 mm 5 mps 763 mmHg 57%
    16:00 +14°C° 0 mm 4 mps 763 mmHg 60%
    17:00 +13°C° 0 mm 4 mps 764 mmHg 63%
    18:00 +11°C° 0 mm 4 mps 764 mmHg 67%
    19:00 +11°C° 0 mm 4 mps 765 mmHg 70%
    20:00 +10°C° 0 mm 4 mps 765 mmHg 73%
    21:00 +8°C° 0 mm 4 mps 766 mmHg 76%
    22:00 +9°C° 0 mm 3 mps 766 mmHg 79%
    23:00 +8°C° 0 mm 3 mps 766 mmHg 81%

    29 September, Saturday

    Time Temperature Precipitation Wind Pressure Humidity
    00:00 +8°C° 0 mm 3 mps 766 mmHg 84%
    01:00 +7°C° 0 mm 3 mps 767 mmHg 86%
    02:00 +7°C° 0 mm 3 mps 767 mmHg 87%
    03:00 +6°C° 0 mm 2 mps 767 mmHg 89%
    04:00 +6°C° 0 mm 2 mps 767 mmHg 89%
    05:00 +6°C° 0 mm 2 mps 767 mmHg 90%
    06:00 +5°C° 0 mm 2 mps 767 mmHg 91%
    07:00 +8°C° 0 mm 3 mps 767 mmHg 81%
    08:00 +10°C° 0 mm 3 mps 767 mmHg 70%
    09:00 +12°C° 0 mm 4 mps 767 mmHg 60%
    10:00 +13°C° 0 mm 4 mps 767 mmHg 56%
    11:00 +14°C° 0 mm 4 mps 767 mmHg 51%
    12:00 +15°C° 0 mm 4 mps 766 mmHg 47%
    13:00 +15°C° 0 mm 4 mps 766 mmHg 47%
    14:00 +15°C° 0 mm 4 mps 765 mmHg 47%
    15:00 +16°C° 0 mm 3 mps 765 mmHg 47%
    16:00 +14°C° 0 mm 3 mps 765 mmHg 52%
    17:00 +12°C° 0 mm 3 mps 765 mmHg 58%
    18:00 +10°C° 0 mm 3 mps 765 mmHg 64%
    19:00 +10°C° 0 mm 2 mps 765 mmHg 66%
    20:00 +9°C° 0 mm 2 mps 765 mmHg 68%
    21:00 +8°C° 0 mm 2 mps 765 mmHg 70%
    22:00 +8°C° 0 mm 2 mps 764 mmHg 71%
    23:00 +8°C° 0 mm 2 mps 764 mmHg 72%

    30 September, Sunday

    Time Temperature Precipitation Wind Pressure Humidity
    00:00 +7°C° 0 mm 2 mps 764 mmHg 73%
    01:00 +7°C° 0 mm 2 mps 763 mmHg 73%
    02:00 +6°C° 0 mm 2 mps 763 mmHg 73%
    03:00 +6°C° 0 mm 2 mps 762 mmHg 73%
    04:00 +6°C° 0 mm 2 mps 762 mmHg 73%
    05:00 +6°C° 0 mm 2 mps 762 mmHg 73%
    06:00 +6°C° 0 mm 1 mps 761 mmHg 73%
    07:00 +8°C° 0 mm 2 mps 761 mmHg 66%
    08:00 +10°C° 0 mm 2 mps 761 mmHg 59%
    09:00 +13°C° 0 mm 2 mps 761 mmHg 52%
    10:00 +14°C° 0 mm 2 mps 760 mmHg 48%
    11:00 +16°C° 0 mm 2 mps 759 mmHg 45%
    12:00 +17°C° 0 mm 2 mps 759 mmHg 41%
    13:00 +17°C° 0 mm 2 mps 758 mmHg 41%
    14:00 +18°C° 0 mm 2 mps 758 mmHg 41%
    15:00 +18°C° 0 mm 2 mps 757 mmHg 42%
    16:00 +16°C° 0 mm 2 mps 757 mmHg 47%
    17:00 +14°C° 0 mm 2 mps 757 mmHg 52%
    18:00 +12°C° 0 mm 2 mps 757 mmHg 57%
    19:00 +10°C° 0 mm 2 mps 757 mmHg 58%
    20:00 +10°C° 0 mm 2 mps 757 mmHg 59%
    21:00 +10°C° 0 mm 2 mps 757 mmHg 60%
    22:00 +9°C° 0 mm 2 mps 757 mmHg 62%
    23:00 +9°C° 0 mm 2 mps 756 mmHg 64%

    1 October, Monday

    Time Temperature Precipitation Wind Pressure Humidity
    00:00 +8°C° 0 mm 2 mps 756 mmHg 66%
    01:00 +8°C° 0 mm 2 mps 756 mmHg 68%
    02:00 +8°C° 0 mm 2 mps 756 mmHg 69%
    03:00 +9°C° 0 mm 1 mps 756 mmHg 71%
    04:00 +9°C° 0 mm 1 mps 756 mmHg 74%
    05:00 +9°C° 0 mm 1 mps 755 mmHg 77%
    06:00 +9°C° 0 mm 1 mps 755 mmHg 80%
    07:00 +9°C° 0.1 mm 2 mps 756 mmHg 77%
    08:00 +10°C° 0.1 mm 2 mps 756 mmHg 75%
    09:00 +12°C° 0.1 mm 3 mps 756 mmHg 72%
    10:00 +11°C° 0.3 mm 3 mps 756 mmHg 75%
    11:00 +11°C° 0.3 mm 3 mps 756 mmHg 79%
    12:00 +11°C° 0.3 mm 4 mps 756 mmHg 82%
    13:00 +11°C° 0.3 mm 4 mps 756 mmHg 82%
    14:00 +11°C° 0.3 mm 4 mps 757 mmHg 82%
    15:00 +10°C° 0.3 mm 4 mps 757 mmHg 82%
    16:00 +10°C° 0.3 mm 4 mps 757 mmHg 84%
    17:00 +8°C° 0.3 mm 4 mps 758 mmHg 85%
    18:00 +7°C° 0.3 mm 4 mps 758 mmHg 87%
    19:00 +7°C° 0 mm 4 mps 759 mmHg 87%
    20:00 +6°C° 0 mm 4 mps 759 mmHg 87%
    21:00 +5°C° 0 mm 3 mps 760 mmHg 87%
    22:00 +5°C° 0 mm 3 mps 760 mmHg 87%
    23:00 +4°C° 0 mm 3 mps 760 mmHg 87%
    Show more